Home > Time Zones > World Clock > Weather > Russia > Perm > Past weeks

Flag for Russia Weather past 2 weeks in Perm, Russia

Now
63 °F

Partly sunny.


Feels Like: 63 °F
Forecast: 58 / 69 °F
Wind: 15 mph from West

Location: Perm'/Bolshoe Savino

Current Time: Aug 2, 2015 at 1:35:51 PM

Latest Report: Aug 2, 2015 at 1:00 PM


Visibility: N/A

Pressure: 29.77 "Hg

Humidity: 73%

Dew point: 54 °F

Location of PermLocation

Historic Weather in Perm — Graph

°F

Perm temperature yesterday

Maximum temperature yesterday: 73 °F (at 2:00 PM)
Minimum temperature yesterday: 57 °F (at 4:30 AM)
Average temperature yesterday: 65 °F

Past Weeks' High & Low Weather Summary

 TemperatureHumidityPressure
High81 °F (Jul 30, 12:00 PM)100% (Jul 20, 1:30 AM)29.92 "Hg (Jul 20, 1:30 AM)
Low48 °F (Jul 20, 5:00 AM)36% (Jul 24, 2:30 PM)29.45 "Hg (Jul 22, 7:00 AM)
Average62 °F78%29.73 "Hg
* Reported Jul 18 12:00 Noon — Aug 2 12:30 PM, Perm, Weather by CustomWeather, © 2015

Note: Actual official high and low records may vary slightly from our data, if they occured in-between our weather recording intervals... More about our weather records

Advertising

Perm weather history for previous 24 hours

 ConditionsComfort  
Time TempWeatherWind HumidityBarometerVisibility
12:30 PM
Sun, Aug 2
63 °FPartly sunny.20 mph73%29.77 "HgN/A
12:00 PM61 °FMostly cloudy.17 mph83%29.74 "HgN/A
11:30 AM61 °FPartly sunny.15 mph83%29.74 "HgN/A
11:00 AM61 °FPartly sunny.17 mph83%29.68 "HgN/A
10:30 AM59 °FPartly sunny.17 mph94%29.68 "HgN/A
10:00 AM61 °FSprinkles. Mostly cloudy.20 mph88%29.65 "Hg5 mi
9:30 AM63 °FMostly cloudy.22 mph83%29.62 "HgN/A
9:00 AM63 °FMostly cloudy.22 mph83%29.62 "HgN/A
8:30 AM64 °FMostly cloudy.24 mph83%29.59 "HgN/A
8:00 AM66 °FMostly cloudy.20 mph83%29.59 "HgN/A
7:30 AM66 °FMostly cloudy.8 mph88%29.59 "HgN/A
7:00 AM63 °FMostly cloudy.8 mph94%29.59 "HgN/A
6:30 AM61 °FMostly cloudy.10 mph94%29.59 "HgN/A
6:00 AM61 °FMostly cloudy.10 mph94%29.59 "HgN/A
5:30 AM61 °FMostly cloudy.8 mph94%29.62 "HgN/A
5:00 AM61 °FMostly cloudy.13 mph94%29.65 "HgN/A
4:30 AM61 °FMostly cloudy.13 mph94%29.65 "HgN/A
4:00 AM61 °FSprinkles. Mostly cloudy.8 mph94%29.68 "HgN/A
3:30 AM61 °FSprinkles. Mostly cloudy.10 mph94%29.71 "Hg5 mi
3:00 AM59 °FRain showers. Mostly cloudy.13 mph100%29.71 "Hg2 mi
2:30 AM59 °FSprinkles. Mostly cloudy.8 mph94%29.74 "HgN/A
2:00 AM61 °FSprinkles. Mostly cloudy.6 mph88%29.77 "Hg4 mi
1:30 AM59 °FSprinkles. Mostly cloudy.6 mph94%29.80 "HgN/A
1:00 AM61 °FSprinkles. Mostly cloudy.3 mph94%29.83 "Hg4 mi
12:30 AM61 °FSprinkles. Mostly cloudy.No wind94%29.83 "HgN/A
12:00 AM64 °FClear.6 mph73%29.80 "Hg10 mi
11:30 PM
Sat, Aug 1
63 °FSunny.6 mph83%29.83 "Hg10 mi
11:00 PM64 °FSunny.6 mph73%29.83 "Hg10 mi
10:30 PM64 °FSunny.6 mph73%29.86 "Hg10 mi
10:00 PM66 °FSunny.3 mph64%29.86 "Hg10 mi
9:30 PM66 °FSunny.3 mph68%29.89 "Hg10 mi
9:00 PM68 °FSunny.3 mph60%29.89 "Hg10 mi
8:00 PM70 °FSunny.3 mph57%29.89 "Hg10 mi
7:30 PM72 °FSunny.8 mph50%29.89 "Hg10 mi
7:00 PM72 °FSunny.10 mph47%29.92 "Hg10 mi
6:30 PM73 °FSunny.13 mph41%29.92 "Hg10 mi
6:00 PM72 °FSunny.10 mph50%29.92 "Hg10 mi
5:30 PM72 °FPassing clouds.8 mph50%29.92 "HgN/A
5:00 PM73 °FPassing clouds.10 mph44%29.92 "HgN/A
4:30 PM73 °FSunny.13 mph44%29.92 "Hg10 mi
4:00 PM73 °FSunny.13 mph47%29.92 "Hg10 mi
3:30 PM73 °FSunny.10 mph50%29.92 "Hg10 mi
3:00 PM73 °FPartly sunny.10 mph47%29.92 "HgN/A
2:30 PM73 °FPartly sunny.13 mph47%29.92 "HgN/A
2:00 PM73 °FPartly sunny.10 mph47%29.92 "HgN/A
1:30 PM72 °FPartly sunny.13 mph50%29.92 "HgN/A
1:00 PM72 °FBroken clouds.13 mph53%29.89 "HgN/A
Weather by CustomWeather, © 2015

See weather overviewHow to use our weather pages